Weather observations for the past three days for
Port Alsworth, Port Alsworth Airport
Imperial (Metric)
Date Time (akdt) Wind (mph) Vis. (mi.) Weather Sky Cond. Temperature (ºF) Relative Humidity Wind Chill (°F) Heat Index (°F) Pressure Precipitation (in)
Air Dwpt 6 hour altimeter (in) sea level (mb) 1 hr 3 hr 6 hr
Max. Min.
12 18:50 Calm 25.00 Overcast BKN060 OVC080 57.2 53.6 88% 29.63 0.0
12 16:54 NW 5 30.00 Overcast BKN060 OVC080 55.4 48.2 77% 29.62 0.0
12 12:52 E 18 30.00 Overcast BKN060 OVC080 60.8 48.2 63% 29.65 0.0
12 10:50 E 16 30.00 Overcast BKN060 OVC080 60.8 48.2 63% 29.69 0.0
11 18:54 Calm 30.00 Overcast BKN060 OVC100 59 55.4 88% 29.88 0.0
11 16:55 Calm 30.00 Overcast BKN060 OVC100 60.8 57.2 88% 29.88 0.0
11 14:50 Calm 30.00 Overcast BKN070 OVC100 59 55.4 88% 29.88 0.0
11 12:50 Calm 25.00 Overcast OVC060 60.8 57.2 88% 29.87 0.0
11 08:58 Calm 25.00 Overcast SCT070 OVC120 55.4 48.2 77% 29.46 0.0
11 06:50 SE 6 15.00 Light Rain FEW020 BKN050 48.2 46.4 94% 46 29.85 0.0
10 16:50 NE 7 30.00 Mostly Cloudy BKN060 BKN080 64.4 55.4 73% 29.69 0.0
10 14:58 NE 8 30.00 Mostly Cloudy SCT060 BKN080 64.4 55.4 73% 29.67 0.0
10 10:50 NE 7 30.00 Mostly Cloudy BKN080 62.6 53.6 73% 29.66 0.0
10 06:50 Calm 30.00 Mostly Cloudy BKN100 53.6 48.2 82% 29.62 0.0
Date Time (akdt) Wind (mph) Vis. (mi.) Weather Sky Cond. Air Dwpt Max. Min. Relative Humidity Wind Chill (°F) Heat Index (°F) altimeter (in) sea level (mb) 1 hr 3 hr 6 hr
6 hour
Temperature (ºF) Pressure Precipitation (in)